N6GIW Weather Reports


time (UTC)temp
F
wind
direction
speed
knots
gust
knots
rain 1hr
in
rain 24hr
in
rain mn
in
humidity
%
barometer
mb
20260505053003 52 221 2.6 5.2 0.00 0.00 0.00 50 1018.5
20260505052504 52 216 2.6 5.2 0.00 0.00 0.00 49 1018.6
20260505052004 53 215 2.6 6.1 0.00 0.00 0.00 48 1018.5
20260505051504 53 218 2.6 10.4 0.00 0.00 0.00 48 1018.5
20260505051004 53 229 3.5 7.8 0.00 0.00 0.00 48 1018.6
20260505050503 53 225 2.6 6.1 0.00 0.00 0.00 48 1018.6
20260505041504 54 227 4.3 7.8 0.00 0.00 0.00 46 1018.2
20260505041005 54 223 4.3 11.3 0.00 0.00 0.00 46 1018.1
20260505040504 54 198 6.1 11.3 0.00 0.00 0.00 46 1018.1
20260505040005 54 222 6.1 11.3 0.00 0.00 0.00 46 1017.9
20260505035504 54 210 7.0 11.3 0.00 0.00 0.00 46 1017.9
20260505035004 54 216 5.2 10.4 0.00 0.00 0.00 46 1018.0
20260505034504 54 215 8.7 12.2 0.00 0.00 0.00 46 1017.9
20260505034004 54 203 7.8 11.3 0.00 0.00 0.00 47 1018.0
20260505033504 55 204 6.1 11.3 0.00 0.00 0.00 47 1018.0
20260505033004 55 218 6.1 11.3 0.00 0.00 0.00 47 1017.8
20260505032504 55 210 7.8 12.2 0.00 0.00 0.00 47 1017.6
20260505032004 55 210 8.7 12.2 0.00 0.00 0.00 47 1017.6
20260505031504 55 218 7.8 13.0 0.00 0.00 0.00 47 1017.7
20260505031003 55 214 7.8 12.2 0.00 0.00 0.00 48 1017.7
20260505030504 55 208 10.4 13.9 0.00 0.00 0.00 49 1017.7
20260505030004 55 208 8.7 13.9 0.00 0.00 0.00 49 1017.8
20260505025504 55 222 8.7 13.0 0.00 0.00 0.00 50 1017.7
20260505025005 56 218 7.8 12.2 0.00 0.00 0.00 51 1017.6
20260505024503 56 218 8.7 13.0 0.00 0.00 0.00 52 1017.6
20260505024004 56 222 7.8 13.9 0.00 0.00 0.00 51 1017.5
20260505022503 57 222 6.1 12.2 0.00 0.00 0.00 46 1017.6
20260505022004 58 214 7.8 13.9 0.00 0.00 0.00 45 1017.7
20260505021503 58 221 7.8 13.9 0.00 0.00 0.00 44 1017.4
20260505021004 59 216 7.8 11.3 0.00 0.00 0.00 43 1017.4
20260505020504 59 223 6.1 13.9 0.00 0.00 0.00 42 1017.3
20260505020004 59 214 7.0 11.3 0.00 0.00 0.00 42 1017.5
20260505015504 60 226 5.2 11.3 0.00 0.00 0.00 41 1017.5
20260505015004 60 211 7.8 12.2 0.00 0.00 0.00 40 1017.4
20260505014004 61 226 6.1 12.2 0.00 0.00 0.00 40 1017.4
20260505013505 61 208 11.3 13.9 0.00 0.00 0.00 39 1017.3
20260505013004 61 199 10.4 15.6 0.00 0.00 0.00 39 1017.4
20260505012504 62 209 8.7 13.9 0.00 0.00 0.00 39 1017.3
20260505012004 62 205 7.8 13.9 0.00 0.00 0.00 39 1017.2
20260505011504 62 208 8.7 14.8 0.00 0.00 0.00 39 1017.4
20260505011004 62 208 8.7 18.2 0.00 0.00 0.00 38 1017.3
20260505010504 63 197 9.6 18.2 0.00 0.00 0.00 38 1017.4
20260505010005 63 212 11.3 17.4 0.00 0.00 0.00 37 1017.3
20260505005504 64 217 8.7 13.9 0.00 0.00 0.00 36 1017.2
20260505005004 64 225 10.4 14.8 0.00 0.00 0.00 36 1017.3
20260505004504 64 217 8.7 15.6 0.00 0.00 0.00 36 1017.3
20260505004004 65 207 10.4 13.9 0.00 0.00 0.00 36 1017.2
20260505003504 65 213 10.4 14.8 0.00 0.00 0.00 35 1017.3
20260505003004 65 211 8.7 15.6 0.00 0.00 0.00 35 1017.3
20260505002004 65 198 10.4 19.1 0.00 0.00 0.00 34 1017.5
20260505001003 66 206 9.6 13.9 0.00 0.00 0.00 34 1017.5
20260505000504 66 199 10.4 17.4 0.00 0.00 0.00 34 1017.5
20260505000004 65 193 12.2 17.4 0.00 0.00 0.00 35 1017.3
20260504235504 65 202 10.4 14.8 0.00 0.00 0.00 35 1017.3
20260504235004 65 212 7.8 13.9 0.00 0.00 0.00 35 1017.4
20260504234504 66 213 7.8 14.8 0.00 0.00 0.00 34 1017.4
20260504234004 66 201 10.4 17.4 0.00 0.00 0.00 34 1017.3
20260504233503 66 192 9.6 13.0 0.00 0.00 0.00 34 1017.3
20260504233005 67 189 10.4 17.4 0.00 0.00 0.00 34 1017.3
20260504232504 66 191 10.4 14.8 0.00 0.00 0.00 34 1017.3
20260504232004 66 187 9.6 14.8 0.00 0.00 0.00 33 1017.5
20260504231504 67 196 8.7 13.9 0.00 0.00 0.00 32 1017.4
20260504231004 67 196 7.8 13.9 0.00 0.00 0.00 32 1017.4
20260504230504 67 172 11.3 17.4 0.00 0.00 0.00 32 1017.5
20260504230003 68 195 8.7 13.9 0.00 0.00 0.00 32 1017.4
20260504225503 67 178 10.4 17.4 0.00 0.00 0.00 33 1017.5
20260504225004 67 183 9.6 14.8 0.00 0.00 0.00 32 1017.4
20260504224504 68 204 9.6 17.4 0.00 0.00 0.00 32 1017.4
20260504224004 68 186 10.4 14.8 0.00 0.00 0.00 32 1017.4
20260504223004 67 179 10.4 14.8 0.00 0.00 0.00 32 1017.5
20260504222504 67 183 12.2 15.6 0.00 0.00 0.00 32 1017.7
20260504222004 67 177 11.3 17.4 0.00 0.00 0.00 32 1017.8
20260504221504 67 206 7.8 12.2 0.00 0.00 0.00 33 1017.9
20260504221004 67 179 8.7 14.8 0.00 0.00 0.00 33 1017.8
20260504220504 67 201 10.4 14.8 0.00 0.00 0.00 33 1018.1
20260504220003 66 199 7.0 12.2 0.00 0.00 0.00 34 1018.1
20260504215503 66 199 7.8 17.4 0.00 0.00 0.00 34 1018.3
20260504215003 66 194 10.4 13.9 0.00 0.00 0.00 33 1018.4
20260504214503 66 189 7.8 13.0 0.00 0.00 0.00 34 1018.4
20260504213503 65 190 10.4 17.4 0.00 0.00 0.00 35 1018.4
20260504213003 66 198 10.4 15.6 0.00 0.00 0.00 34 1018.5
20260504212503 66 207 7.8 13.0 0.00 0.00 0.00 34 1018.4
20260504212003 66 182 7.8 14.8 0.00 0.00 0.00 34 1018.6
20260504211503 65 194 10.4 19.1 0.00 0.00 0.00 35 1018.6
20260504211003 66 208 9.6 15.6 0.00 0.00 0.00 35 1018.6
20260504204503 66 208 8.7 13.9 0.00 0.00 0.00 33 1018.8
20260504204003 66 167 8.7 12.2 0.00 0.00 0.00 34 1018.6
20260504203503 66 194 10.4 14.8 0.00 0.00 0.00 34 1018.6
20260504203004 65 167 9.6 17.4 0.00 0.00 0.00 35 1018.6
20260504202502 66 199 7.8 13.9 0.00 0.00 0.00 35 1019.0
20260504202004 66 175 11.3 17.4 0.00 0.00 0.00 35 1018.9
20260504201502 66 201 7.0 13.0 0.00 0.00 0.00 35 1018.9
20260504200503 66 138 7.0 10.4 0.00 0.00 0.00 35 1019.1
20260504195503 65 226 5.2 13.9 0.00 0.00 0.00 35 1019.1
20260504194503 65 219 5.2 10.4 0.00 0.00 0.00 35 1019.2
20260504194003 64 165 5.2 11.3 0.00 0.00 0.00 36 1019.3
20260504193502 64 203 1.7 6.1 0.00 0.00 0.00 32 1019.2
20260504193003 64 189 3.5 14.8 0.00 0.00 0.00 34 1019.2
20260504192502 64 154 5.2 10.4 0.00 0.00 0.00 32 1019.2
20260504192003 64 176 7.0 13.0 0.00 0.00 0.00 33 1019.0
20260504191504 64 181 1.7 12.2 0.00 0.00 0.00 35 1019.3
20260504191002 65 174 4.3 13.0 0.00 0.00 0.00 35 1019.3
20260504190503 65 134 3.5 7.0 0.00 0.00 0.00 35 1019.4
20260504190003 65 126 0.9 2.6 0.00 0.00 0.00 36 1019.5
20260504185004 64 165 1.7 7.8 0.00 0.00 0.00 36 1019.8
20260504184003 64 103 0.9 2.6 0.00 0.00 0.00 37 1019.5
20260504183503 64 132 1.7 4.3 0.00 0.00 0.00 36 1019.4
20260504183003 64 150 1.7 6.1 0.00 0.00 0.00 36 1019.2
20260504182503 63 99 0.0 2.6 0.00 0.00 0.00 37 1019.5
20260504182003 63 95 0.9 2.6 0.00 0.00 0.00 38 1019.5
20260504181503 63 138 0.0 1.7 0.00 0.00 0.00 38 1019.5
20260504181003 62 110 0.0 1.7 0.00 0.00 0.00 38 1019.5
20260504180503 62 103 0.9 2.6 0.00 0.00 0.00 39 1019.6
20260504180002 62 70 0.9 7.8 0.00 0.00 0.00 39 1019.4
20260504175502 62 90 0.9 2.6 0.00 0.00 0.00 40 1019.3
20260504175003 62 90 0.9 4.3 0.00 0.00 0.00 39 1019.3
20260504174003 61 93 1.7 2.6 0.00 0.00 0.00 40 1019.2
20260504173503 61 152 1.7 6.1 0.00 0.00 0.00 40 1019.1
20260504173004 61 109 0.0 1.7 0.00 0.00 0.00 40 1019.0
20260504172502 60 124 0.0 0.9 0.00 0.00 0.00 41 1019.3
20260504172004 60 124 0.0 4.3 0.00 0.00 0.00 42 1019.2
20260504170502 59 166 0.9 2.6 0.00 0.00 0.00 43 1019.2
20260504151004 55 109 0.0 1.7 0.00 0.00 0.00 51 1018.7
20260504150503 55 109 0.0 0.9 0.00 0.00 0.00 51 1018.6
20260504141003 51 205 2.6 2.6 0.00 0.00 0.00 57 1018.6
20260504140503 51 209 0.9 2.6 0.00 0.00 0.00 59 1018.7
20260504130502 47 187 0.0 0.9 0.00 0.00 0.00 60 1017.9
20260504110503 49 249 0.0 0.9 0.00 0.00 0.00 58 1017.4
20260504100502 52 253 0.0 0.0 0.00 0.00 0.00 55 1017.1
20260504082003 54 209 4.3 7.0 0.00 0.00 0.00 55 1018.1
20260504081004 54 207 5.2 10.4 0.00 0.00 0.00 54 1018.2
20260504080503 54 211 7.0 8.7 0.00 0.00 0.00 53 1017.8